{"data":{"norad_id":66194,"intl_designator":"2025-243T","name":"STARLINK-35374","alt_names":[],"object_type":"PAYLOAD","status":"ACTIVE","operator":null,"country":"US","launch_date":"2025-10-26","launch_site_code":"AFETR","launch_vehicle":null,"mission":null,"orbit_class":"UNKNOWN","rcs_meters":null,"size_class":null,"mass_kg":null,"dimensions":null,"purposes":["comms"],"wikipedia_slug":null,"has_3d_model":false,"image_url":null,"decayed_at":null,"tle_current":{"epoch":"2026-05-25T00:05:32.400672Z","epoch_age_seconds":75543,"freshness":"FRESH","line1":"1 66194U 25243T   26145.00384723  .00015314  00000+0  50408-3 0  9990","line2":"2 66194  53.1601 250.3672 0001277  76.1263 283.9880 15.31709810 32346","mean_motion":15.3170981,"eccentricity":0.0001277,"inclination_deg":53.1601,"raan_deg":250.3672,"arg_perigee_deg":76.1263,"mean_anomaly_deg":283.988,"bstar":0.00050408,"rev_number":3234,"period_min":94.012585843529,"perigee_km":469.83615442423,"apogee_km":471.58535014016,"semimajor_km":6848.8477522822,"source":"CELESTRAK","updated_at":"2026-05-25T13:38:21.122186Z"}}}